Home   Weather   Bergheim   Past weeks

Flag for Germany Past Weather in Bergheim, North Rhine-Westphalia, Germany — Yesterday and Last 2 Weeks

50 °F

Drizzle. Fog.

Feels Like: 48 °F
Forecast: 49 / 54 °F
Wind: 5 mph from Southeast

Location: Noervenich

Current Time: Oct 24, 2016 at 2:31:47 PM

Latest Report: Oct 24, 2016 at 1:20 PM

Visibility: 2 mi

Pressure: 29.86 "Hg

Humidity: 94%

Dew Point: 48 °F

Location of BergheimLocation

Past Weather in Bergheim — Graph


Bergheim Temperature Yesterday

Maximum temperature yesterday: 46 °F (at 4:20 PM)
Minimum temperature yesterday: 34 °F (at 2:20 AM)
Average temperature yesterday: 40 °F

High & Low Weather Summary for the Past Weeks

High68 °F (Oct 16, 3:20 PM)100% (Oct 11, 6:20 AM)30.27 "Hg (Oct 11, 6:20 AM)
Low34 °F (Oct 23, 2:20 AM)51% (Oct 9, 2:20 PM)29.65 "Hg (Oct 15, 2:20 AM)
Average48 °F84%30.01 "Hg
* Reported Oct 9 1:20 PM — Oct 24 1:20 PM, Bergheim, Weather by CustomWeather, © 2016

Note: Actual official high and low records may vary slightly from our data, if they occured in-between our weather recording intervals... More about our weather records


Bergheim Weather History for the Previous 24 Hours

Scroll right to see more
Time TempWeatherWind HumidityBarometerVisibility
1:20 PM
Mon, Oct 24
50 °FDrizzle. Fog.5 mph94%29.86 "Hg2 mi
12:48 PM48 °FDrizzle. Fog.6 mph100%29.86 "Hg1 mi
12:20 PM48 °FDrizzle. Fog.6 mph100%29.86 "Hg1 mi
11:20 AM46 °FDrizzle. Fog.7 mph100%29.86 "Hg1 mi
10:20 AM46 °FDrizzle. Fog.6 mph93%29.89 "Hg2 mi
9:47 AM46 °FDrizzle. Fog.5 mph93%29.89 "Hg2 mi
9:20 AM46 °FFog.6 mph93%29.89 "Hg3 mi
8:20 AM46 °FPartly sunny.7 mph93%29.86 "Hg5 mi
7:20 AM46 °FPassing clouds.6 mph93%29.86 "Hg6 mi
6:20 AM46 °FPassing clouds.3 mph93%29.89 "Hg6 mi
5:20 AM46 °FPassing clouds.5 mph93%29.86 "HgN/A
4:20 AM45 °FPassing clouds.3 mph93%29.89 "HgN/A
3:20 AM45 °FPassing clouds.2 mph93%29.86 "HgN/A
2:20 AM45 °FPartly cloudy.5 mph93%29.86 "HgN/A
1:20 AM45 °FLight rain. Partly cloudy.5 mph93%29.86 "HgN/A
12:20 AM45 °FPassing clouds.5 mph93%29.86 "HgN/A
11:20 PM
Sun, Oct 23
45 °FPassing clouds.3 mph93%29.89 "HgN/A
10:20 PM43 °FPassing clouds.5 mph93%29.89 "HgN/A
9:20 PM45 °FQuite cool.2 mph87%29.89 "HgN/A
8:20 PM45 °FQuite cool.5 mph87%29.89 "HgN/A
7:20 PM43 °FQuite cool.5 mph93%29.89 "HgN/A
6:20 PM45 °FQuite cool.5 mph87%29.89 "HgN/A
5:20 PM46 °FCool.3 mph87%29.86 "HgN/A
4:20 PM46 °FCool.5 mph87%29.89 "HgN/A
3:20 PM45 °FQuite cool.5 mph87%29.89 "HgN/A
2:20 PM45 °FQuite cool.7 mph87%29.89 "HgN/A
Weather by CustomWeather, © 2016

See weather overviewHow to use our weather pages